Regional Weather Roundup
Issued by NWS

Home | Current Version | Previous Version | Text Only | Print | Product List | Glossary On
Versions: 1 2 3 4 5 6 7 8 9 10 11 12 13 14 15 16 17 18 19 20 21 22 23 24 25 26 27 28 29 30 31 32 33 34 35 36 37 38 39 40 41 42 43 44 45 46 47 48 49 50
000
ASUS44 KFWD 272001
RWRTX
NORTH TEXAS HOURLY WEATHER ROUNDUP
NATIONAL WEATHER SERVICE FORT WORTH TX
300 PM CDT MON APR 27 2015

NOTE: "FAIR" INDICATES FEW OR NO CLOUDS BELOW 12,000 FEET WITH NO
SIGNIFICANT WEATHER AND/OR OBSTRUCTIONS TO VISIBILITY.

TXZ118-119-272100-
DALLAS/FORT WORTH METROPLEX

CITY           SKY/WX    TMP DP  RH WIND       PRES   REMARKS
DFW AIRPORT    CLOUDY    68  58  70 E12       29.75S
DALLAS LOVE    CLOUDY    69  57  65 E14       29.76R
FTW MEACHAM    CLOUDY    69  59  70 E14       29.73F
DAL-EXECUTIVE  CLOUDY    68  58  70 E10       29.75S
FTW-ALLIANCE   CLOUDY    68  58  70 E10       29.74F
FTW-NAS-JRB    PTSUNNY   70  59  68 E12       29.74S
FTW-SPINKS     CLOUDY    68  61  77 E13       29.75F
ARLINGTON      CLOUDY    69  57  65 E9        29.74F
GRAND PRAIRIE  CLOUDY    68  59  73 NE9       29.76S
ADDISON        CLOUDY    68  55  64 E10       29.77R
MESQUITE       CLOUDY    66  57  72 NE6       29.77S
LANCASTER      CLOUDY    67  59  77 NE6       29.77R
$$

TXZ091>094-102>105-117-120-121-131>134-272100-
NORTH CENTRAL TEXAS

CITY           SKY/WX    TMP DP  RH WIND       PRES   REMARKS
SHRMAN/DENISON CLOUDY    64  59  82 NE6       29.82S
BRIDGEPORT     RAIN      62  60  92 N5        29.80R
DECATUR        CLOUDY    62  56  82 NE10      29.77S
DENTON         CLOUDY    66  58  75 NE17      29.75F
MCKINNEY       CLOUDY    68  58  70 E7        29.77F
ROCKWALL       CLOUDY    69  58  68 E10G20    29.76S
TERRELL        CLOUDY    70  59  68 NE10      29.76F
WAXAHACHIE     CLOUDY    66  60  83 CALM      29.75S
GRANBURY         N/A     72  62  71 E9        29.74S
$$

TXZ083>090-098>101-113>116-127>130-139>142-154-155-272100-
WESTERN NORTH TEXAS

CITY           SKY/WX    TMP DP  RH WIND       PRES   REMARKS
WICHITA FALLS  PTSUNNY   62  58  86 E18       29.79R
WF-KICKAPOO    CLOUDY    65  60  83 E14       29.80R
ABILENE        MOSUNNY   72  50  45 NW7G18    29.78F
ABILENE-DYESS  MOSUNNY   71  55  58 N13G22    29.77S
BRECKENRIDGE   PTSUNNY   72  53  52 NW12G18   29.77F HAZE
MINERAL WELLS  TSTM      64  62  93 N10       29.74S FOG
STEPHENVILLE   PTSUNNY   75  60  58 SW6       29.75S
COMANCHE       PTSUNNY   75  59  56 NW9       29.75R
$$

TXZ143>147-156>162-174-175-272100-
CENTRAL TEXAS

CITY           SKY/WX    TMP DP  RH WIND       PRES   REMARKS
WACO           PTSUNNY   76  64  66 NW8       29.70F
WACO-TSTC      PTSUNNY   77  64  65 N6        29.70F
WACO-MCGREGOR  MOSUNNY   77  63  61 NW6       29.72S
CORSICANA      CLOUDY    73  64  73 N9        29.73S
MEXIA          CLOUDY    75  64  69 E5        29.69F
HEARNE         PTSUNNY   79  67  67 CALM      29.69S
TEMPLE         PTSUNNY   81  63  54 NW3       29.70R
KILLEEN        FAIR      77  61  58 N8        29.70S
KILLEEN-SKYLRK MOSUNNY   77  59  53 N7        29.71S
FORT HOOD      PTSUNNY   77  61  56 NW8       29.70R
HAMILTON       MOSUNNY   76  58  54 NW6       29.74S
LAMPASAS       MOSUNNY   76  60  58 W7        29.72S
$$

TXZ095>097-106>112-122>126-135>138-148>153-164>167-272100-
EAST TEXAS

CITY           SKY/WX    TMP DP  RH WIND       PRES   REMARKS
PARIS          CLOUDY    66  52  59 MISG      29.82R
SULPHUR SPRNGS CLOUDY    69  56  61 E14       29.80S
GILMER         MOSUNNY   70  56  61 E10       29.78S
TYLER          MOSUNNY   74  59  59 E18G24    29.74S
LONGVIEW       SUNNY     72  57  59 E13G22    29.75S
ATHENS         CLOUDY    72  61  68 E10       29.71F
PALESTINE      PTSUNNY  N/A N/A N/A E12       29.72F
JACKSONVILLE   SUNNY     74  60  61 E13G20    29.74F
NACOGDOCHES    CLOUDY    73  63  68 E14G20    29.72S
LUFKIN         CLOUDY    77  63  61 E15       29.71R
$$

SUPPLEMENTAL OBSERVATIONS (CENTRAL)

CITY           SKY/WX    TMP DP  RH WIND       PRES   REMARKS
$$

SUPPLEMENTAL OBSERVATIONS (WEST)

CITY           SKY/WX    TMP DP  RH WIND       PRES   REMARKS
$$

SUPPLEMENTAL OBSERVATIONS (EAST)

CITY           SKY/WX    TMP DP  RH WIND       PRES   REMARKS
$$

SUPPLEMENTAL OBSERVATIONS ARE A COLLECTION OF AUTOMATED INSTRUMENTS
THAT ARE MAINTAINED BY A VARIETY OF FEDERAL AND STATE AGENCIES.
CERTAIN ELEMENTS...SUCH AS HUMIDITY VALUES AND SUSTAINED WIND
SPEEDS...MAY BE APPROXIMATED.



USA.gov is the U.S. government's official web portal to all federal, state and local government web resources and services.